Regional Weather Roundup
Issued by NWS

Home | Current Version | Previous Version | Graphics & Text | Print | Product List | Glossary On
Versions: 1 2 3 4 5 6 7 8 9 10 11 12 13 14 15 16 17 18 19 20 21 22 23 24 25 26 27 28 29 30 31 32 33 34 35 36 37 38 39 40 41 42 43 44 45 46 47 48 49 50
000
ASUS45 KTFX 052210
RWRMT
MONTANA REGIONAL WEATHER ROUNDUP
NATIONAL WEATHER SERVICE GREAT FALLS MT
300 PM MST FRI FEB 05 2016

NOTE: "FAIR" INDICATES FEW OR NO CLOUDS BELOW 12000 FEET WITH NO
SIGNIFICANT WEATHER AND/OR OBSTRUCTIONS TO VISIBILITY.

MTZ001>007-043-052300-
WEST OF THE DIVIDE

CITY           SKY/WX    TMP DP  RH WIND       PRES   REMARKS
KALISPELL      CLOUDY    39  29  67 S7        30.29F
MISSOULA       MOSUNNY   36  26  67 W3        30.33F
BUTTE          CLOUDY    38  21  50 N6        30.28F
MULLAN PASS    CLOUDY    32  27  81 VRB7      30.25F WCI  26
ANACONDA         N/A     39  23  52 S12G17    30.28F WCI  32
DEER LODGE       N/A     39  25  56 NW5       30.29F
HAMILTON         N/A     46  27  46 SE10      30.31F
LIBBY            N/A     43  28  56 CALM      30.29
PLAINS           N/A     44  30  58 CALM      30.30F
$$

MTZ008-052>055-052300-
SOUTHWEST MONTANA

CITY           SKY/WX    TMP DP  RH WIND       PRES   REMARKS
BOZEMAN        CLOUDY    35  19  52 CALM      30.29F
DILLON         SUNNY     33  21  61 SW18      30.31F WCI  22
ENNIS          SUNNY     36  18  48 S18G26    30.38F WCI  25
THREE FORKS      N/A     43   0  16 S14       30.24F
TWIN BRIDGES     N/A     35  20  55 SE12      30.28F WCI  27
$$

MTZ009-010-012-014-046-048-049-054-052300-
EAST SLOPES AND CENTRAL MONTANA

CITY           SKY/WX    TMP DP  RH WIND       PRES   REMARKS
CUT BANK       MOSUNNY   46  24  42 W40G49    30.01S
GREAT FALLS    CLOUDY    48  22  35 SW25G33   30.08F
MALMSTROM AFB  SUNNY     48  23  36 SW31G38   30.09F
HELENA         CLOUDY    44  24  45 W13       30.23F
CHOTEAU          N/A     48  21  34 W22G30    30.05S
CONRAD           N/A     51  25  36 SW18      30.04F
$$

MTZ011-013-016-021-045-047-050-051-052300-
NORTH CENTRAL MONTANA

CITY           SKY/WX    TMP DP  RH WIND       PRES   REMARKS
HAVRE          SUNNY     51  26  37 SW26G35   29.99F
LEWISTOWN      CLOUDY    41  27  57 W15       30.09F
N BAR RANCH      N/A     45  21  39 W13G22    30.10F
CHINOOK          N/A     52  23  32 SW20G26   30.00F
$$

MTZ017>020-022>027-061-062-052300-
NORTHEAST MONTANA

CITY           SKY/WX    TMP DP  RH WIND       PRES   REMARKS
GLASGOW        SUNNY     38  27  64 SW6       30.04F
JORDAN           N/A     43  29  57 W6        30.08F
SIDNEY         SUNNY     45  21  39 W14         N/A
WOLF POINT     SUNNY     43  27  53 SW8       30.06F
PLENTYWOOD       N/A     37  25  60 SW12      30.03F WCI  30
POPLAR           N/A     41  28  60 CALM      30.07F
SCOBEY           N/A     35  18  50 SW5       30.01F
$$

MTZ028>42-056>058-052300-
SOUTHCENTRAL AND SOUTHEAST MONTANA

CITY           SKY/WX    TMP DP  RH WIND       PRES   REMARKS
BAKER          SUNNY     42  20  41 W13       30.12F
BILLINGS       CLOUDY    45  15  30 SW16G25   30.16F
LIVINGSTON     SUNNY     45  16  31 W26G35    30.22F
MILES CITY     SUNNY     48  22  35 W15       30.12F
FORSYTH          N/A     48  19  32 W13       30.13F
LAUREL           N/A     44  14  29 S12       30.14F
ROUNDUP          N/A     47  18  31 W20       30.03S
$$

REGIONAL REPORTS...DAKOTAS

CITY           SKY/WX    TMP DP  RH WIND       PRES   REMARKS
WILLISTON      CLOUDY    40  25  55 SW9       30.07F
MINOT          SUNNY     40  21  46 W15       30.06F
DICKINSON      SUNNY     40  20  44 W15       30.08F
BEACH            N/A     41  23  48 W14       30.12F
CROSBY           N/A     36  27  69 SW14      30.06F WCI  27
TIOGA            N/A     32  28  86 W9        30.10F WCI  24
WATFORD CITY     N/A     37  27  65 SW9       30.09S WCI  31
BISMARCK       SUNNY     43  24  47 W15       30.13F
GRAND FORKS    SUNNY     27  18  69 CALM      30.12F
FARGO          SUNNY     31  22  69 NW5       30.14S
BUFFALO SD       N/A     43  21  41 W20       30.09S
RAPID CITY     SUNNY     41  22  46 N14       30.18F
$$

REGIONAL REPORTS...WYOMING/IDAHO/WASHINGTON

CITY           SKY/WX    TMP DP  RH WIND       PRES   REMARKS
GILLETTE       SUNNY     34  20  56 SW9       30.20S WCI  27
SHERIDAN       MOSUNNY   43  10  26 SE3       30.17F
BUFFALO WY     CLOUDY    34  17  50 S16       30.18F WCI  24
CODY           CLOUDY    43  14  31 W16G25    30.19S
YELLOWSTONE LA   N/A     22  13  68 VRB7      30.36R WCI  13
IDAHO FALLS    CLOUDY    19  16  88 N7        30.52F FOG     WCI  10
SALMON         CLOUDY    25  16  68 CALM      30.44F
BOISE          SUNNY     46  36  68 S9        30.47F
SPOKANE        CLOUDY    46  37  71 SE10      30.26F
$$

REGIONAL REPORTS...ALBERTA

CITY           SKY/WX    TMP DP  RH WIND       PRES   REMARKS
EDMONTON       SUNNY     43  25  49 S5        29.66F
CALGARY        MOSUNNY   41  23  48 S7        29.81F
LETHBRIDGE     PTSUNNY   48  25  40 W24G33    29.95F
MEDICINE HAT   PTSUNNY   46  30  53 SW17      29.90F
WATERTON GATE    N/A     41  23  48 SW33G51     N/A
CARDSTON         N/A     45  21  39 W17G31      N/A
MILK RIVER       N/A     50  23  34 W25G31      N/A
$$

REGIONAL REPORTS...SASKATCHEWAN

CITY           SKY/WX    TMP DP  RH WIND       PRES   REMARKS
SWIFT CURRENT  SUNNY     37  28  70 SW17      29.90F WCI  28
REGINA         MOSUNNY   37  27  65 S8        29.95F WCI  31
SASKATOON      PTSUNNY   27  18  69 S8        29.90F WCI  18
VAL MARIE        N/A     41  27  56 W14G20      N/A
ROCKGLEN         N/A     30  23  74 W15         N/A  WCI  19
ASSINIBOIA       N/A     32  23  69 S10         N/A  WCI  24
$$



USA.gov is the U.S. government's official web portal to all federal, state and local government web resources and services.